Regional Weather Roundup
Issued by NWS

Home | Current Version | Previous Version | Graphics & Text | Print | Product List | Glossary On
Versions: 1 2 3 4 5 6 7 8 9 10 11 12 13 14 15 16 17 18 19 20 21 22 23 24 25 26 27 28 29 30 31 32 33 34 35 36 37 38 39 40 41 42 43 44 45 46 47 48 49 50
000
ASUS43 KFSD 151110
RWRSD

WEATHER ROUNDUP FOR SOUTH DAKOTA
NATIONAL WEATHER SERVICE SIOUX FALLS SD
600 AM CDT TUE APR 15 2014

NOTE: "FAIR" INDICATES FEW OR NO CLOUDS BELOW 12,000 FEET WITH NO
SIGNIFICANT WEATHER AND/OR OBSTRUCTIONS TO VISIBILITY.


SDZ001>005-009-010-012>017-151200-
NORTHWEST AND NORTH CENTRAL SOUTH DAKOTA

CITY           SKY/WX    TMP DP  RH WIND       PRES   REMARKS
BUFFALO          N/A     20  12  71 SE8       29.78F WCI  10
FAITH            N/A     20  12  71 MISG      29.91F
MOBRIDGE       CLEAR     20  11  68 SE13      30.03F WCI   7
$$

SDZ012>016-024>037-041>051-057-063-072>074-151200-
SOUTHWEST AND SOUTH CENTRAL SOUTH DAKOTA

CITY           SKY/WX    TMP DP  RH WIND       PRES   REMARKS
RAPID CTY ARPT CLEAR     18  11  74 SE3       29.86F
PIERRE         CLEAR     19  16  88 SE8       30.04F WCI   9
CUSTER         CLEAR     27  12  53 W9        29.85F WCI  18
ELLSWORTH AFB  CLEAR     24  12  60 SE6       29.85F WCI  17
PHILIP         CLEAR     18  10  71 E8        29.95F WCI   8
PINE RIDGE     CLEAR     31  19  61 S9        29.91F WCI  23
SPEARFISH      FAIR      34  14  44 W5        29.81F WCI  30
WINNER         FAIR      19   9  65 SE9       30.04F WCI   8
$$

SDZ004>011-016>023-039-040-151200-
NORTHEAST SOUTH DAKOTA

CITY           SKY/WX    TMP DP  RH WIND       PRES   REMARKS
ABERDEEN       CLEAR      9   6  88 CALM      30.15F
WATERTOWN      CLEAR     13   9  84 CALM      30.13R
SISSETON         N/A     15  11  83 W5        30.16R WCI   8
$$

SDZ017-020-022-023-036>040-048>070-151200-
SOUTHEAST SOUTH DAKOTA

CITY           SKY/WX    TMP DP  RH WIND       PRES   REMARKS
SIOUX FALLS    CLEAR     13  10  88 CALM      30.16F
HURON          CLEAR     17  13  84 S7        30.14F WCI   8
CHAMBERLAIN      N/A     19  16  88 SE10      30.09F WCI   7
MITCHELL       CLEAR     19  15  84 SE7       30.16F WCI  10
YANKTON        CLEAR     18  16  93 E3        30.18S
$$

ABBREVIATIONS USED IN REMARKS
   TC - TEMPERATURE IN CELSIUS
  WCI - WIND CHILL INDEX
   HX - HEAT INDEX
  VSB - VISIBILITY




USA.gov is the U.S. government's official web portal to all federal, state and local government web resources and services.